Waarnemingen

Advertentie
Mijn weer
Istres, Frankrijk (7647): temperatuur & dauwpunt: 17.01.2018 05:00:00 - 23.01.2018 05:00:00 (CET)Istres, Frankrijk (7647): temperatuur 5cm: 17.01.2018 05:00:00 - 23.01.2018 05:00:00 (CET)Istres, Frankrijk (7647): windsnelheid & windstoten: 17.01.2018 05:00:00 - 23.01.2018 05:00:00 (CET)Istres, Frankrijk (7647): windrichting: 17.01.2018 05:00:00 - 23.01.2018 05:00:00 (CET)Istres, Frankrijk (7647): luchtdruk: 17.01.2018 05:00:00 - 23.01.2018 05:00:00 (CET)Istres, Frankrijk (7647): zicht: 17.01.2018 05:00:00 - 23.01.2018 05:00:00 (CET)Istres, Frankrijk (7647): neerslag: 17.01.2018 05:00:00 - 23.01.2018 05:00:00 (CET)
Datum & Tijd tt [°C] td [°C] tt 5cm [°C] ff [km/u] ff [kn] fx [km/u] fx [kn] dd ppp [hPa] vv [km] rr [mm]
23.01.2018 05:00:00 10,3 4,6 8,3 29 16 38 21 WNW 1022,7 60 0,0
23.01.2018 04:00:00 11,2 5,1 9,6 16 9 52 28 WNW 1022,4 60 0,0
23.01.2018 03:00:00 12,4 6,9 10,6 36 20 53 29 NW 1022,0 60 0,0
23.01.2018 02:00:00 11,5 5,6 10,0 32 18 52 28 WNW 1020,9 60 0,0
23.01.2018 01:00:00 11,2 5,7 10,1 29 16 41 22 WNW 1019,8 60 0,0
23.01.2018 00:00:00 11,8 5,6 10,6 25 13 44 24 WNW 1019,5 60 0,0
22.01.2018 23:00:00 13,3 5,7 10,2 34 19 48 26 WNW 1018,8 60 0,0
22.01.2018 22:00:00 11,2 7,5 10,2 18 10 36 19 W 1019,0 60 0,0
22.01.2018 21:00:00 13,1 8,2 12,2 23 13 35 19 W 1019,0 60 0,0
22.01.2018 20:00:00 13,6 8,2 12,5 19 11 35 19 WZW 1019,4 60 0,0
22.01.2018 19:00:00 14,0 9,0 13,3 22 12 40 21 W 1019,0 60 0,0
22.01.2018 18:00:00 14,4 9,0 13,5 27 15 43 23 W 1018,1 60 0,0
22.01.2018 17:00:00 15,1 8,3 14,2 26 14 37 20 WNW 1018,2 18 0,0
22.01.2018 16:00:00 15,1 7,1 14,0 26 14 36 20 W 1018,2 12 0,0
22.01.2018 15:00:00 15,4 7,7 15,0 16 9 43 23 W 1018,5 18 0,0
22.01.2018 14:00:00 17,4 6,9 18,1 32 18 49 26 NW 1018,6 60 0,0
22.01.2018 13:00:00 17,6 6,5 18,6 25 14 55 30 W 1018,8 56 0,0
22.01.2018 12:00:00 17,7 7,1 16,9 40 22 63 34 WNW 1019,4 11 0,0
22.01.2018 11:00:00 16,5 7,4 14,8 31 17 50 27 WNW 1019,5 20 0,0
22.01.2018 10:00:00 14,4 8,1 13,7 24 13 34 18 W 1018,9 36 0,0
22.01.2018 09:00:00 13,2 8,3 8,0 24 13 31 17 W 1018,3 20 0,0
22.01.2018 08:00:00 9,2 6,5 7,8 13 7 24 13 WNW 1018,1 16 0,0
22.01.2018 07:00:00 11,1 6,2 8,9 16 9 25 14 WZW 1017,9 60 0,0
22.01.2018 06:00:00 11,5 6,6 9,8 19 10 32 18 W 1018,0 60 0,0
22.01.2018 05:00:00 12,3 6,8 8,1 28 15 36 20 WNW 1018,0 60 0,0
22.01.2018 04:00:00 10,9 6,6 8,6 19 10 29 15 W 1018,4 60 0,0
22.01.2018 03:00:00 9,4 6,1 8,3 16 9 35 19 WZW 1018,2 60 0,0
22.01.2018 02:00:00 9,4 6,7 5,4 18 10 28 15 W 1018,4 56 0,0
22.01.2018 01:00:00 6,6 4,4 5,4 11 6 17 9 W 1018,5 60 0,0
22.01.2018 00:00:00 8,6 5,7 7,0 14 8 20 11 WNW 1018,2 60 0,0
21.01.2018 23:00:00 8,9 5,3 7,1 16 9 21 12 WNW 1018,1 60 0,0
21.01.2018 22:00:00 7,9 4,5 6,8 16 8 17 9 W 1018,1 60 0,0
21.01.2018 21:00:00 8,3 4,5 6,8 10 5 22 12 WNW 1017,7 60 0,0
21.01.2018 20:00:00 10,3 4,9 9,3 16 8 36 20 NW 1017,4 60 0,0
21.01.2018 19:00:00 11,1 4,5 10,2 23 12 34 19 NW 1017,0 60 0,0
21.01.2018 18:00:00 11,6 4,8 10,5 17 9 38 20 WNW 1016,5 60 0,0
21.01.2018 17:00:00 13,8 4,6 14,4 26 14 42 23 NNW 1015,9 56 0,0
21.01.2018 16:00:00 14,6 4,3 15,4 28 15 55 30 NNW 1015,8 50 0,0
21.01.2018 15:00:00 14,8 3,6 17,5 42 23 64 35 NNW 1015,4 20 0,0
21.01.2018 14:00:00 15,4 3,8 17,7 44 24 71 38 NNW 1015,2 20 0,0
21.01.2018 13:00:00 15,1 2,6 17,4 55 30 76 41 NNW 1015,4 19 0,0
21.01.2018 12:00:00 15,1 2,9 16,6 48 26 69 38 NNW 1015,7 31 0,0
21.01.2018 11:00:00 14,4 3,2 15,7 52 28 75 41 NNW 1014,9 20 0,0
21.01.2018 10:00:00 13,8 3,8 13,4 46 25 64 35 NNW 1014,5 19 0,0
21.01.2018 09:00:00 12,3 5,0 11,3 36 20 61 33 NNW 1014,2 32 0,0
21.01.2018 08:00:00 12,1 5,3 9,4 32 17 49 27 NW 1013,4 60 0,0
21.01.2018 07:00:00 10,7 5,4 9,5 22 12 30 16 WNW 1012,7 60 0,0
21.01.2018 06:00:00 11,2 6,9 9,6 23 12 36 19 NW 1012,1 59 0,0
21.01.2018 05:00:00 12,1 8,2 10,2 22 12 29 16 NNW 1011,8 52 0,0
21.01.2018 04:00:00 12,4 8,5 10,9 14 7 33 18 N 1011,5 60 0,0
21.01.2018 03:00:00 12,6 9,2 11,9 26 14 47 26 WZW 1010,7 60 0,0
21.01.2018 02:00:00 13,2 9,6 12,0 29 16 42 23 WZW 1010,6 60 0,0
21.01.2018 01:00:00 12,8 9,6 12,2 32 17 52 28 W 1010,5 57 0,0
21.01.2018 00:00:00 13,6 9,8 13,0 35 19 53 29 WZW 1010,7 60 0,0
20.01.2018 23:00:00 13,5 9,7 12,8 36 19 52 28 WZW 1010,9 60 0,0
20.01.2018 22:00:00 13,3 9,7 12,2 33 18 49 26 WZW 1011,3 57 0,0
20.01.2018 21:00:00 12,8 9,2 12,2 30 16 53 29 WZW 1011,3 56 0,0
20.01.2018 20:00:00 12,8 9,2 12,2 32 18 53 29 WZW 1011,5 50 0,0
20.01.2018 19:00:00 12,6 8,7 11,8 30 16 50 27 ZW 1011,8 49 0,0
20.01.2018 18:00:00 12,2 8,1 11,8 34 18 56 30 WZW 1012,0 47 0,0
20.01.2018 17:00:00 12,2 7,5 11,5 37 20 55 30 ZW 1012,5 45 0,0
20.01.2018 16:00:00 11,8 6,9 10,5 32 18 48 26 ZW 1013,0 48 0,0
20.01.2018 15:00:00 10,7 6,3 10,5 19 10 29 15 ZZW 1014,1 57 0,0
20.01.2018 14:00:00 9,8 3,5 10,2 6 3 11 6 Z 1015,4 60 0,0
20.01.2018 13:00:00 9,5 2,6 10,6 6 3 9 5 Z 1017,0 60 0,0
20.01.2018 12:00:00 9,4 1,8 10,4 0 0 8 4 N 1018,4 60 0,0
20.01.2018 11:00:00 9,3 1,2 10,6 5 3 16 9 WNW 1019,1 54 0,0
20.01.2018 10:00:00 8,2 2,2 7,1 12 6 17 9 W 1019,6 49 0,0
20.01.2018 09:00:00 3,8 1,7 0,9 10 5 13 7 W 1019,7 13 0,0
20.01.2018 08:00:00 2,7 0,6 1,2 8 4 17 9 W 1019,5 60 0,0
20.01.2018 07:00:00 4,1 1,1 3,1 16 9 28 15 NW 1019,2 60 0,0
20.01.2018 06:00:00 4,2 1,6 3,2 19 10 26 14 WNW 1019,1 60 0,0
20.01.2018 05:00:00 4,6 1,4 3,3 14 8 25 14 WNW 1019,2 59 0,0
20.01.2018 04:00:00 5,5 1,6 4,4 16 9 24 13 WNW 1019,3 60 0,0
20.01.2018 03:00:00 7,3 1,4 6,0 17 9 40 22 NW 1019,4 60 0,0
20.01.2018 02:00:00 7,7 2,2 4,6 22 12 29 16 NW 1019,0 52 0,0
20.01.2018 01:00:00 7,6 3,4 6,5 13 7 22 12 WNW 1019,0 60 0,0
20.01.2018 00:00:00 7,1 3,2 3,7 10 5 18 10 WNW 1019,3 60 0,0
19.01.2018 23:00:00 7,7 2,8 6,0 11 6 25 14 NW 1019,0 60 0,0
19.01.2018 22:00:00 7,5 3,4 5,9 16 9 24 13 WNW 1018,8 60 0,0
19.01.2018 21:00:00 7,3 3,0 5,1 16 9 22 12 W 1018,3 60 0,0
19.01.2018 20:00:00 6,7 2,6 5,0 16 9 19 11 W 1017,8 39 0,0
19.01.2018 19:00:00 9,0 2,5 7,4 12 7 15 8 NW 1016,9 60 0,0
19.01.2018 18:00:00 9,9 3,0 7,8 12 6 24 13 NW 1016,3 60 0,0
19.01.2018 17:00:00 13,6 2,8 14,4 21 12 33 18 NNW 1015,5 54 0,0
19.01.2018 16:00:00 15,3 2,4 16,8 27 15 51 27 NNW 1015,3 30 0,0
19.01.2018 15:00:00 15,9 2,7 15,3 29 16 51 28 WNW 1014,6 30 0,0
19.01.2018 14:00:00 15,3 2,8 17,4 29 15 49 27 WNW 1015,1 20 0,0
19.01.2018 13:00:00 14,2 3,3 16,6 31 17 42 23 NW 1015,5 48 0,0
19.01.2018 12:00:00 13,2 4,1 14,6 26 14 35 19 NW 1016,1 20 0,0
19.01.2018 11:00:00 11,6 5,7 11,2 22 12 29 16 NW 1016,3 10 0,0
19.01.2018 10:00:00 9,3 6,9 8,6 18 10 30 16 NW 1016,0 10 0,0
19.01.2018 09:00:00 7,4 6,3 3,1 18 10 24 13 WNW 1016,0 10 0,0
19.01.2018 08:00:00 5,8 4,9 2,0 9 5 13 7 NW 1015,5 10 0,0
19.01.2018 07:00:00 5,9 4,9 3,2 4 2 10 6 NNO 1015,1 10 0,0
19.01.2018 06:00:00 6,9 5,8 4,6 8 4 17 9 WNW 1015,5 10 0,0
19.01.2018 05:00:00 7,6 6,2 4,9 13 7 22 12 WZW 1015,6 10 0,0
19.01.2018 04:00:00 6,9 5,4 3,3 5 3 11 6 WZW 1016,3 10 0,0
19.01.2018 03:00:00 7,5 5,6 5,9 8 4 21 11 W 1016,9 10 0,0
19.01.2018 02:00:00 8,4 6,4 6,8 18 10 22 12 WZW 1016,7 10 0,0
19.01.2018 01:00:00 7,5 6,1 4,9 15 8 19 11 WZW 1017,1 10 0,0
19.01.2018 00:00:00 6,5 5,1 5,4 11 6 18 10 W 1017,6 10 0,0
18.01.2018 23:00:00 6,7 5,2 4,7 9 5 17 9 WNW 1017,7 10 0,0
18.01.2018 22:00:00 7,0 4,6 6,0 11 6 22 12 W 1018,2 10 0,0
18.01.2018 21:00:00 8,3 5,6 7,0 9 5 27 15 NW 1018,3 10 0,0
18.01.2018 20:00:00 9,3 6,0 8,6 18 10 35 19 WZW 1018,3 10 0,0
18.01.2018 19:00:00 10,1 5,9 9,3 21 11 31 17 WZW 1018,4 10 0,0
18.01.2018 18:00:00 11,0 5,9 9,8 13 7 30 16 WZW 1018,6 10 0,0
18.01.2018 17:00:00 12,4 6,2 12,4 22 12 33 18 WZW 1018,6 53 0,0
18.01.2018 16:00:00 12,9 6,9 13,2 20 11 38 20 ZW 1018,9 20 0,0
18.01.2018 15:00:00 13,6 6,0 15,6 26 14 38 20 WZW 1019,3 10 0,0
18.01.2018 14:00:00 13,3 5,2 15,4 27 15 40 21 WZW 1020,0 16 0,0
18.01.2018 13:00:00 13,1 4,8 15,2 28 15 39 21 W 1021,2 20 0,0
18.01.2018 12:00:00 12,9 4,6 14,8 22 12 36 19 W 1022,2 15 0,0
18.01.2018 11:00:00 12,2 4,9 11,0 22 12 32 17 W 1023,0 10 0,0
18.01.2018 10:00:00 9,5 4,9 8,3 11 6 17 9 WZW 1023,0 20 0,0
18.01.2018 09:00:00 5,0 3,2 0,0 9 5 14 8 WZW 1023,0 10 0,0
18.01.2018 08:00:00 1,7 -0,2 -0,5 0 0 6 3 N 1022,4 10 0,0
18.01.2018 07:00:00 2,4 -0,2 -0,2 4 2 12 7 N 1022,5 10 0,0
18.01.2018 06:00:00 2,2 -1,1 0,6 5 3 14 8 W 1022,2 10 0,0
18.01.2018 05:00:00 3,6 -0,2 0,5 11 6 13 7 NW 1022,8 10 0,0
18.01.2018 04:00:00 4,1 -0,3 0,2 9 5 18 10 NW 1023,6 10 0,0
18.01.2018 03:00:00 2,4 -1,0 -0,2 3 1 14 8 W 1024,0 55 0,0
18.01.2018 02:00:00 3,0 -0,8 0,7 11 6 16 8 WNW 1023,9 10 0,0
18.01.2018 01:00:00 3,8 -0,6 2,1 15 8 20 11 WNW 1023,9 10 0,0
18.01.2018 00:00:00 4,4 -1,0 2,2 16 9 25 14 WNW 1024,0 10 0,0
17.01.2018 23:00:00 3,7 -1,1 0,4 13 7 18 10 W 1024,0 60 0,0
17.01.2018 22:00:00 3,8 -1,4 2,3 13 7 23 12 WNW 1023,5 10 0,0
17.01.2018 21:00:00 6,5 -1,2 4,9 22 12 27 15 NW 1022,9 60 0,0
17.01.2018 20:00:00 6,5 -1,7 4,9 15 8 29 16 WNW 1022,2 10 0,0
17.01.2018 19:00:00 8,4 -2,6 7,0 18 10 39 21 WNW 1021,1 10 0,0
17.01.2018 18:00:00 9,9 -3,4 8,9 24 13 47 26 NW 1020,3 10 0,0
17.01.2018 17:00:00 11,7 -4,1 11,8 37 20 67 36 WNW 1019,4 10 0,0
17.01.2018 16:00:00 12,9 -3,8 13,0 41 22 78 42 WNW 1018,5 9 0,0
17.01.2018 15:00:00 13,4 -4,3 13,1 46 25 84 46 NW 1017,5 10 0,0
17.01.2018 14:00:00 13,1 -4,1 12,7 57 31 86 47 NW 1017,4 10 0,0
17.01.2018 13:00:00 12,5 -2,6 12,7 44 24 67 36 NW 1017,7 10 0,0
17.01.2018 12:00:00 13,3 -1,1 14,3 43 23 63 34 WNW 1017,2 14 0,0
17.01.2018 11:00:00 12,2 -1,0 13,3 44 24 61 33 WNW 1017,2 10 0,0
17.01.2018 10:00:00 10,9 3,2 11,3 31 17 44 24 WNW 1016,2 10 0,0
17.01.2018 09:00:00 9,8 3,1 9,2 22 12 53 29 WNW 1014,7 10 0,0
17.01.2018 08:00:00 10,8 2,4 10,1 41 22 67 36 WNW 1014,1 10 0,0
17.01.2018 07:00:00 11,3 2,8 10,3 42 23 62 34 W 1012,1 10 0,0
17.01.2018 06:00:00 11,6 4,6 9,5 26 14 64 34 WNW 1011,9 10 0,0
17.01.2018 05:00:00 12,0 5,8 11,2 24 13 70 38 W 1011,3 10 0,0

tt = temperatuur
td = dauwpunt
tt 5cm = temperatuur 5cm
ff = windsnelheid
fx = windstoten
dd = windrichting
ppp = luchtdruk
vv = zicht
rr = neerslag

Weerstations in de omgeving